Regional Weather Roundup
Issued by NWS Albany, NY

Current Version | Previous Version | Text Only | Print | Product List | Glossary On
Versions: 1 2 3 4 5 6 7 8 9 10 11 12 13 14 15 16 17 18 19 20 21 22 23 24 25 26 27 28 29 30 31 32 33 34 35 36 37 38 39 40 41 42 43 44 45 46 47 48 49
000
ASUS41 KALY 192010
RWRALY

NEW YORK STATE HOURLY WEATHER ROUNDUP
NATIONAL WEATHER SERVICE ALBANY NY
300 PM EST FRI DEC 19 2014

NOTE: "FAIR" INDICATES FEW OR NO CLOUDS BELOW 12,000 FEET WITH NO
SIGNIFICANT WEATHER AND/OR NO OBSTRUCTIONS TO VISIBILITY.

NYZ032-033-038>043-046>054-057>066-NYZ062>081-192100-
EAST


CITY           SKY/WX    TMP DP  RH WIND       PRES   REMARKS
ALBANY         CLOUDY    30  20  66 W13       30.07R WCI  20
GLENS FALLS    PTSUNNY   31  22  69 NE9       30.05R WCI  23
POUGHKEEPSIE   CLOUDY    37  21  52 NW10      30.05R WCI  30
MONTGOMERY     PTSUNNY   33  21  61 NW12G22   30.05R WCI  24
WHITE PLAINS   PTSUNNY   35  20  54 NW13G21   30.02R WCI  26
ISLIP          PTSUNNY   39  22  50 NW14      30.01R WCI  31
NEW YORK CITY  MOSUNNY   37  21  52 NW18      30.05R WCI  27
CENTRAL PARK   SUNNY     36  19  50 VRB6G18   30.07R WCI  31
$$

NYZ005>009-017-018-044>046-055-056-192100-
CENTRAL


CITY           SKY/WX    TMP DP  RH WIND       PRES   REMARKS
FULTON         CLOUDY    28  20  71 W9        30.15R WCI  19
SYRACUSE       FLURRIES  26  24  92 NW7       30.15R WCI  18
ROME           CLOUDY    26  20  77 W12       30.15R WCI  16
ELMIRA         CLOUDY    29  21  72 NW8       30.13R WCI  21
BINGHAMTON     CLOUDY    23  19  85 NW10      30.06R WCI  12
MONTICELLO     CLOUDY    27  19  74 NW9G17    30.04R WCI  17
$$

NYZ026>034-041>043-192100-
NORTH


CITY           SKY/WX    TMP DP  RH WIND       PRES   REMARKS
WATERTOWN      CLOUDY    26  15  63 NW3       30.16R
FORT DRUM      NOT AVBL
MASSENA        CLOUDY    20  12  71 W8        30.17R WCI  10
SARANAC LAKE   CLOUDY    19  15  84 W6        30.01R WCI  11
PLATTSBURGH    CLOUDY    26  18  71 N10       30.10R WCI  16
$$

NYZ001>004-010>016-019>021-192100-
WEST


CITY           SKY/WX    TMP DP  RH WIND       PRES   REMARKS
NIAGARA FALLS  PTSUNNY   28  20  71 W10       30.18R WCI  19
BUFFALO        PTSUNNY   28  19  69 W12       30.18R WCI  18
DUNKIRK        CLOUDY    28  20  71 W8        30.20S WCI  20
JAMESTOWN      CLOUDY    23  19  86 NW6       30.13R WCI  16
WELLSVILLE     CLOUDY    24  19  81 NW9       30.09R WCI  14
ROCHESTER      CLOUDY    28  21  75 NW10      30.17R WCI  19
PENN YAN       CLOUDY    28  21  75 W6        30.14R WCI  22
$$

             KEY
       WCI = WIND CHILL INDEX
       VSB = VISIBILITY
       HX  = HEAT INDEX
$$


USA.gov is the U.S. government's official web portal to all federal, state and local government web resources and services.